Preview of NWS' New Version of Forecast
This preview is not operational and should not be used for support decisions.

Regional Weather Roundup (RWR)

Issued by National Weather Service (NWS)

                            
000
ASUS46 KPQR 222310
RWROR 

OREGON REGIONAL WEATHER ROUNDUP
NATIONAL WEATHER SERVICE PORTLAND OR
300 PM PST FRI FEB 22 2019

NOTE: "FAIR" INDICATES FEW OR NO CLOUDS BELOW 12,000 FEET WITH
NO SIGNIFICANT WEATHER AND/OR OBSTRUCTIONS TO VISIBILITY.

ORZ001>013-230000-
NORTHWEST OREGON

  
CITY           SKY/WX    TMP DP  RH WIND       PRES   REMARKS
ASTORIA        LGT RAIN  43  42  97 SW7       29.98S FOG              
TILLAMOOK      LGT RAIN  45  43  93 S14G25    30.01F                  
NEWPORT        DRIZZLE   45  41  87 S20G30    30.09F                  
PORTLAND       CLOUDY    46  30  53 S23G31    30.00F                  
VANCOUVER WA   CLOUDY    45  30  55 S13G23    30.00F                  
SCAPPOOSE      LGT RAIN  44  35  70 S8        29.98F                  
HILLSBORO      LGT RAIN  43  34  70 S15       29.98F                  
AURORA         CLOUDY    44  31  60 S23G31    30.00F                  
MCMINNVILLE    CLOUDY    44  36  73 S18G26    30.00F                  
SALEM          CLOUDY    44  31  60 S14G26    30.04F                  
CORVALLIS      CLOUDY    45  36  70 S15       30.08F                  
EUGENE         CLOUDY    47  31  53 S13       30.10F                  
$$

ORZ021-028-230000-
SOUTHWEST OREGON

  
CITY           SKY/WX    TMP DP  RH WIND       PRES   REMARKS
NORTH BEND     CLOUDY    50  37  61 S8        30.15                   
BROOKINGS      SUNNY     49  33  54 NW9       30.16R                  
ROSEBURG       CLOUDY    50  30  46 SE6       30.12F                  
GRANTS PASS    PTSUNNY   48  23  37 CALM      30.13                   
MEDFORD        SUNNY     46  23  40 CALM      30.09F                  
$$

ORZ014>016-041-230000-
COLUMBIA GORGE

  
CITY           SKY/WX    TMP DP  RH WIND       PRES   REMARKS
TROUTDALE      CLOUDY    47  28  47 S10G25    30.00F                  
HOOD RIVER     CLOUDY    37  32  81 NW6       29.97F                  
THE DALLES     PTSUNNY   36  25  64 CALM      29.99F                  
$$

ORZ029>031-041-044-049-050-061>064-502-503-505>511-230000-
EASTERN OREGON

  
CITY           SKY/WX    TMP DP  RH WIND       PRES   REMARKS
MADRAS         NOT AVBL                                               
REDMOND        CLOUDY    41  16  36 N7        29.94S                  
BEND           PTSUNNY   41  18  38 NW7       29.93R                  
PRINEVILLE     CLOUDY    39  16  38 CALM      29.94S                  
KLAMATH FALLS  SUNNY     35  15  44 S3        30.02F                  
LAKEVIEW       SUNNY     28  14  55 SE9       30.01S                  
HERMISTON      CLOUDY    39  24  55 S7        29.97F                  
PENDLETON      CLOUDY    40  20  44 SW9       29.95S                  
JOHN DAY       PTSUNNY   31  17  57 E9        29.93                   
MEACHAM        CLOUDY    32  19  58 CALM      29.89S                  
LA GRANDE      PTSUNNY   31  20  63 S21       29.97S WCI  18          
BAKER CITY     MOSUNNY   35  20  54 VRB3      29.95F                  
BURNS          SUNNY     34  15  46 SW9       29.96F                  
ROME           NOT AVBL                                               
ONTARIO        MOSUNNY   39  22  50 E8        30.07F                  
$$